UTC Time,IVD_Pointing_Delta,Supporting Event Data
Calendar_Date,radians,
2016-318T23:04:56.000,0.0005780734,0.5780734
2016-318T23:04:57.000,0.0005697488,0.5697488
2016-318T23:04:58.000,0.0005767771,0.5767771
2016-318T23:04:59.000,0.0005944736,0.5944736
2016-318T23:05:00.000,0.0005854518,0.5854518
2016-318T23:05:01.000,0.0005627964,0.5627964
2016-318T23:05:02.000,0.000531031,0.531031
2016-318T23:05:03.000,0.0004955837,0.4955837
2016-318T23:05:04.000,0.0004883054,0.4883054
2016-318T23:05:05.000,0.0004963428,0.4963428
2016-318T23:05:06.000,0.0004862553,0.4862553
2016-318T23:05:07.000,0.0004669848,0.4669848
2016-318T23:05:08.000,0.0004422019,0.4422019
2016-318T23:05:09.000,0.0004154235,0.4154235
2016-318T23:05:10.000,0.0004114706,0.4114706
2016-318T23:05:11.000,0.0004182347,0.4182347
2016-318T23:05:12.000,0.0004230672,0.4230672
2016-318T23:05:13.000,0.0004322489,0.4322489
2016-318T23:05:14.000,0.0004245393,0.4245393
2016-318T23:05:15.000,0.0004085063,0.4085063
2016-318T23:05:16.000,0.0004101665,0.4101665
2016-318T23:05:17.000,0.0004196053,0.4196053
2016-318T23:05:18.000,0.0004379563,0.4379563
2016-318T23:05:19.000,0.0004645314,0.4645314
2016-318T23:05:20.000,0.0004615838,0.4615838
2016-318T23:05:21.000,0.0004445469,0.4445469
2016-318T23:05:22.000,0.0004293422,0.4293422
2016-318T23:05:23.000,0.0004162954,0.4162954
2016-318T23:05:24.000,0.0003953762,0.3953762
2016-318T23:05:25.000,0.000376424,0.376424
2016-318T23:05:26.000,0.0003890081,0.3890081
2016-318T23:05:27.000,0.0004180653,0.4180653
2016-318T23:05:28.000,0.000413325,0.413325
2016-318T23:05:29.000,0.0003976301,0.3976301
2016-318T23:05:30.000,0.000387227,0.387227
2016-318T23:05:31.000,0.0003790406,0.3790406
2016-318T23:05:32.000,0.0003614969,0.3614969
2016-318T23:05:33.000,0.0003414684,0.3414684
2016-318T23:05:34.000,0.0003377954,0.3377954
2016-318T23:05:35.000,0.0003437175,0.3437175
2016-318T23:05:36.000,0.0003661191,0.3661191
2016-318T23:05:37.000,0.0004013592,0.4013592
2016-318T23:05:38.000,0.0004163499,0.4163499
2016-318T23:05:39.000,0.000423213,0.423213
2016-318T23:05:40.000,0.0004183043,0.4183043
2016-318T23:05:41.000,0.0004094706,0.4094706
2016-318T23:05:42.000,0.0003994772,0.3994772
2016-318T23:05:43.000,0.0003883352,0.3883352
2016-318T23:05:44.000,0.0003783295,0.3783295
2016-318T23:05:45.000,0.0003695012,0.3695012
2016-318T23:05:46.000,0.0003612699,0.3612699
2016-318T23:05:47.000,0.0003539139,0.3539139
2016-318T23:05:48.000,0.0003481523,0.3481523
2016-318T23:05:49.000,0.000343794,0.343794
2016-318T23:05:50.000,0.0003402667,0.3402667
2016-318T23:05:51.000,0.0003395354,0.3395354
2016-318T23:05:52.000,0.000329536,0.329536
2016-318T23:05:53.000,0.0003150877,0.3150877
2016-318T23:05:54.000,0.0003308481,0.3308481
2016-318T23:05:55.000,0.0003617418,0.3617418
2016-318T23:05:56.000,0.0003597961,0.3597961
2016-318T23:05:57.000,0.0003417235,0.3417235
2016-318T23:05:58.000,0.0003435474,0.3435474
2016-318T23:05:59.000,0.0003573616,0.3573616
2016-318T23:06:00.000,0.0003843675,0.3843675
2016-318T23:06:01.000,0.0004180266,0.4180266
2016-318T23:06:02.000,0.0004276248,0.4276248
2016-318T23:06:03.000,0.0004254564,0.4254564
2016-318T23:06:04.000,0.0004384687,0.4384687
2016-318T23:06:05.000,0.0004600012,0.4600012
2016-318T23:06:06.000,0.0004676391,0.4676391
2016-318T23:06:07.000,0.0004692322,0.4692322
2016-318T23:06:08.000,0.0004846252,0.4846252
2016-318T23:06:09.000,0.0005063018,0.5063018
2016-318T23:06:10.000,0.0005130299,0.5130299
2016-318T23:06:11.000,0.000512721,0.512721
2016-318T23:06:12.000,0.0005038913,0.5038913
2016-318T23:06:13.000,0.0004911547,0.4911547
2016-318T23:06:14.000,0.0004803094,0.4803094
2016-318T23:06:15.000,0.0004703003,0.4703003
2016-318T23:06:16.000,0.0004577016,0.4577016
2016-318T23:06:17.000,0.0004440483,0.4440483
2016-318T23:06:18.000,0.0004229788,0.4229788
2016-318T23:06:19.000,0.0003983253,0.3983253
2016-318T23:06:20.000,0.0003833549,0.3833549
2016-318T23:06:21.000,0.0003730668,0.3730668
2016-318T23:06:22.000,0.0003511053,0.3511053
2016-318T23:06:23.000,0.0003236505,0.3236505
2016-318T23:06:24.000,0.00030726,0.30726
2016-318T23:06:25.000,0.0002961767,0.2961767
2016-318T23:06:26.000,0.0002757596,0.2757596
2016-318T23:06:27.000,0.0002509617,0.2509617
2016-318T23:06:28.000,0.0002336774,0.2336774
2016-318T23:06:29.000,0.0002204693,0.2204693
2016-318T23:06:30.000,0.0002083679,0.2083679
2016-318T23:06:31.000,0.0001966249,0.1966249
2016-318T23:06:32.000,0.0001759087,0.1759087
2016-318T23:06:33.000,0.0001509583,0.1509583
2016-318T23:06:34.000,0.0001335304,0.1335304
2016-318T23:06:35.000,0.0001205787,0.1205787
2016-318T23:06:36.000,0.0000994064,0.0994064
2016-318T23:06:37.000,0.0000738714,0.0738714
2016-318T23:06:38.000,0.0000576156,0.0576156
2016-318T23:06:39.000,0.000045875,0.045875
2016-318T23:06:40.000,0.0000347669,0.0347669
2016-318T23:06:41.000,0.0000311072,0.0311072
2016-318T23:06:42.000,0.0000265735,0.0265735
2016-318T23:06:43.000,0.0000369068,0.0369068
2016-318T23:06:44.000,0.0000312605,0.0312605
2016-318T23:06:45.000,0.0000143038,0.0143038
2016-318T23:06:46.000,0.0000289827,0.0289827
2016-318T23:06:47.000,0.0000585978,0.0585978
2016-318T23:06:48.000,0.0000761214,0.0761214
2016-318T23:06:49.000,0.0000878713,0.0878713
2016-318T23:06:50.000,0.0001067892,0.1067892
2016-318T23:06:51.000,0.000130645,0.130645
2016-318T23:06:52.000,0.0001417082,0.1417082
2016-318T23:06:53.000,0.0001472735,0.1472735
2016-318T23:06:54.000,0.0001764438,0.1764438
2016-318T23:06:55.000,0.0002167067,0.2167067
2016-318T23:06:56.000,0.0002329774,0.2329774
2016-318T23:06:57.000,0.0002377228,0.2377228
2016-318T23:06:58.000,0.0002620476,0.2620476
2016-318T23:06:59.000,0.0002969209,0.2969209
2016-318T23:07:00.000,0.0003167612,0.3167612
2016-318T23:07:01.000,0.0003294705,0.3294705
2016-318T23:07:02.000,0.0003517141,0.3517141
2016-318T23:07:03.000,0.0003784133,0.3784133
2016-318T23:07:04.000,0.0003765137,0.3765137
2016-318T23:07:05.000,0.0003632174,0.3632174
2016-318T23:07:06.000,0.0003371062,0.3371062
2016-318T23:07:07.000,0.0003039338,0.3039338
2016-318T23:07:08.000,0.0002939799,0.2939799
2016-318T23:07:09.000,0.0002953442,0.2953442
2016-318T23:07:10.000,0.0002806101,0.2806101
2016-318T23:07:11.000,0.0002616386,0.2616386
2016-318T23:07:12.000,0.0002500504,0.2500504
2016-318T23:07:13.000,0.000249679,0.249679
2016-318T23:07:14.000,0.0002513007,0.2513007
2016-318T23:07:15.000,0.0002510835,0.2510835
2016-318T23:07:16.000,0.0002506654,0.2506654
2016-318T23:07:17.000,0.0002506579,0.2506579
2016-318T23:07:18.000,0.0002499871,0.2499871
2016-318T23:07:19.000,0.0002545295,0.2545295
2016-318T23:07:20.000,0.0002582786,0.2582786
2016-318T23:07:21.000,0.0002618038,0.2618038
2016-318T23:07:22.000,0.0002872466,0.2872466
2016-318T23:07:23.000,0.0003223783,0.3223783
2016-318T23:07:24.000,0.0003472586,0.3472586
2016-318T23:07:25.000,0.0003701577,0.3701577
2016-318T23:07:26.000,0.0003862155,0.3862155
2016-318T23:07:27.000,0.000398164,0.398164
2016-318T23:07:28.000,0.0004101469,0.4101469
2016-318T23:07:29.000,0.0004221663,0.4221663
2016-318T23:07:30.000,0.0004600961,0.4600961
2016-318T23:07:31.000,0.0005107873,0.5107873
2016-318T23:07:32.000,0.0005451808,0.5451808
2016-318T23:07:33.000,0.0005716349,0.5716349
2016-318T23:07:34.000,0.0005679789,0.5679789
2016-318T23:07:35.000,0.0005499422,0.5499422
2016-318T23:07:36.000,0.000551804,0.551804
2016-318T23:07:37.000,0.0005632434,0.5632434
2016-318T23:07:38.000,0.0005646108,0.5646108
2016-318T23:07:39.000,0.0005613128,0.5613128
2016-318T23:07:40.000,0.0005562549,0.5562549
2016-318T23:07:41.000,0.0005513795,0.5513795
2016-318T23:07:42.000,0.0005577558,0.5577558
2016-318T23:07:43.000,0.000569175,0.569175
2016-318T23:07:44.000,0.0005614108,0.5614108
2016-318T23:07:45.000,0.0005446203,0.5446203
2016-318T23:07:46.000,0.0005213143,0.5213143
2016-318T23:07:47.000,0.0004947224,0.4947224
2016-318T23:07:48.000,0.0004680985,0.4680985
2016-318T23:07:49.000,0.0004424121,0.4424121
2016-318T23:07:50.000,0.0004227634,0.4227634
2016-318T23:07:51.000,0.0004058128,0.4058128
2016-318T23:07:52.000,0.0003754872,0.3754872
2016-318T23:07:53.000,0.0003406925,0.3406925
2016-318T23:07:54.000,0.0003115757,0.3115757
2016-318T23:07:55.000,0.0002852052,0.2852052
2016-318T23:07:56.000,0.0002688442,0.2688442
2016-318T23:07:57.000,0.0002576874,0.2576874
2016-318T23:07:58.000,0.0002642313,0.2642313
2016-318T23:07:59.000,0.0002814171,0.2814171
2016-318T23:08:00.000,0.0002665897,0.2665897
2016-318T23:08:01.000,0.0002431826,0.2431826
2016-318T23:08:02.000,0.0002383867,0.2383867
2016-318T23:08:03.000,0.0002404979,0.2404979
2016-318T23:08:04.000,0.0002509067,0.2509067
2016-318T23:08:05.000,0.000275423,0.275423
2016-318T23:08:06.000,0.0002933027,0.2933027
2016-318T23:08:07.000,0.0003053832,0.3053832
2016-318T23:08:08.000,0.0003192651,0.3192651
2016-318T23:08:09.000,0.0003343302,0.3343302
2016-318T23:08:10.000,0.0003259061,0.3259061
2016-318T23:08:11.000,0.0003060533,0.3060533
2016-318T23:08:12.000,0.000294982,0.294982
2016-318T23:08:13.000,0.0002881749,0.2881749
2016-318T23:08:14.000,0.0002687254,0.2687254
2016-318T23:08:15.000,0.0002435049,0.2435049
2016-318T23:08:16.000,0.0002283841,0.2283841
2016-318T23:08:17.000,0.000219041,0.219041
2016-318T23:08:18.000,0.0002219649,0.2219649
2016-318T23:08:19.000,0.0002304369,0.2304369
2016-318T23:08:20.000,0.0002238735,0.2238735
2016-318T23:08:21.000,0.0002103634,0.2103634
2016-318T23:08:22.000,0.0001997243,0.1997243
2016-318T23:08:23.000,0.0001905905,0.1905905
2016-318T23:08:24.000,0.0001804095,0.1804095
2016-318T23:08:25.000,0.0001742995,0.1742995
2016-318T23:08:26.000,0.0001627415,0.1627415
2016-318T23:08:27.000,0.0001467232,0.1467232
2016-318T23:08:28.000,0.0001465905,0.1465905
2016-318T23:08:29.000,0.0001544195,0.1544195
2016-318T23:08:30.000,0.0001459494,0.1459494
2016-318T23:08:31.000,0.0001295646,0.1295646
2016-318T23:08:32.000,0.0001191881,0.1191881
2016-318T23:08:33.000,0.0001118334,0.1118334
2016-318T23:08:34.000,0.0000916066,0.0916066
2016-318T23:08:35.000,0.0000715692,0.0715692
2016-318T23:08:36.000,0.0000755563,0.0755563
2016-318T23:08:37.000,0.0000871669,0.0871669
2016-318T23:08:38.000,0.0000804052,0.0804052
2016-318T23:08:39.000,0.0000656177,0.0656177
2016-318T23:08:40.000,0.0000682287,0.0682287
2016-318T23:08:41.000,0.0000787465,0.0787465
2016-318T23:08:42.000,0.000069333,0.069333
2016-318T23:08:43.000,0.0000596289,0.0596289
2016-318T23:08:44.000,0.0000815229,0.0815229
2016-318T23:08:45.000,0.0001138048,0.1138048
2016-318T23:08:46.000,0.0001283683,0.1283683
2016-318T23:08:47.000,0.0001347381,0.1347381
2016-318T23:08:48.000,0.0001254671,0.1254671
2016-318T23:08:49.000,0.0001116516,0.1116516
2016-318T23:08:50.000,0.0001111184,0.1111184
2016-318T23:08:51.000,0.0001161283,0.1161283
2016-318T23:08:52.000,0.0001408619,0.1408619
2016-318T23:08:53.000,0.0001801623,0.1801623
2016-318T23:08:54.000,0.0001982403,0.1982403
2016-318T23:08:55.000,0.0002048967,0.2048967
2016-318T23:08:56.000,0.0002137405,0.2137405
2016-318T23:08:57.000,0.0002241887,0.2241887
2016-318T23:08:58.000,0.0002137818,0.2137818
2016-318T23:08:59.000,0.0001934029,0.1934029
2016-318T23:09:00.000,0.0001909784,0.1909784
2016-318T23:09:01.000,0.0001970535,0.1970535
2016-318T23:09:02.000,0.0002170997,0.2170997
2016-318T23:09:03.000,0.0002438786,0.2438786
2016-318T23:09:04.000,0.0002572693,0.2572693
2016-318T23:09:05.000,0.0002641907,0.2641907
2016-318T23:09:06.000,0.0002782051,0.2782051
2016-318T23:09:07.000,0.000296103,0.296103
2016-318T23:09:08.000,0.0003066913,0.3066913
2016-318T23:09:09.000,0.0003135617,0.3135617
2016-318T23:09:10.000,0.0003289914,0.3289914
2016-318T23:09:11.000,0.0003488169,0.3488169
2016-318T23:09:12.000,0.0003603854,0.3603854
2016-318T23:09:13.000,0.0003678453,0.3678453
2016-318T23:09:14.000,0.00037211,0.37211
2016-318T23:09:15.000,0.0003750718,0.3750718
2016-318T23:09:16.000,0.0003858782,0.3858782
2016-318T23:09:17.000,0.0004004988,0.4004988
2016-318T23:09:18.000,0.00041373,0.41373
2016-318T23:09:19.000,0.0004266714,0.4266714
2016-318T23:09:20.000,0.0004292419,0.4292419
2016-318T23:09:21.000,0.0004267469,0.4267469
2016-318T23:09:22.000,0.000425386,0.425386
2016-318T23:09:23.000,0.0004245831,0.4245831
2016-318T23:09:24.000,0.0004517906,0.4517906
2016-318T23:09:25.000,0.0004931739,0.4931739
2016-318T23:09:26.000,0.000490207,0.490207
2016-318T23:09:27.000,0.0004657384,0.4657384
2016-318T23:09:28.000,0.00042934,0.42934
2016-318T23:09:29.000,0.0003877513,0.3877513
2016-318T23:09:30.000,0.0003589105,0.3589105
2016-318T23:09:31.000,0.0003361959,0.3361959
2016-318T23:09:32.000,0.0003256931,0.3256931
2016-318T23:09:33.000,0.0003263018,0.3263018
2016-318T23:09:34.000,0.0003246894,0.3246894
2016-318T23:09:35.000,0.0003201524,0.3201524
2016-318T23:09:36.000,0.0002986944,0.2986944
2016-318T23:09:37.000,0.0002704047,0.2704047
2016-318T23:09:38.000,0.0002557527,0.2557527
2016-318T23:09:39.000,0.0002514041,0.2514041
2016-318T23:09:40.000,0.0002534902,0.2534902
2016-318T23:09:41.000,0.0002613437,0.2613437
2016-318T23:09:42.000,0.0002661295,0.2661295
2016-318T23:09:43.000,0.0002699709,0.2699709
2016-318T23:09:44.000,0.0002852057,0.2852057
2016-318T23:09:45.000,0.0003078562,0.3078562
2016-318T23:09:46.000,0.000329893,0.329893
2016-318T23:09:47.000,0.0003547305,0.3547305
2016-318T23:09:48.000,0.0003790651,0.3790651
2016-318T23:09:49.000,0.0004019866,0.4019866
2016-318T23:09:50.000,0.0004403818,0.4403818
2016-318T23:09:51.000,0.0004870058,0.4870058
2016-318T23:09:52.000,0.0005097451,0.5097451
2016-318T23:09:53.000,0.0005220447,0.5220447
2016-318T23:09:54.000,0.0005256667,0.5256667
2016-318T23:09:55.000,0.0005255775,0.5255775
2016-318T23:09:56.000,0.0005263549,0.5263549
2016-318T23:09:57.000,0.000527407,0.527407
2016-318T23:09:58.000,0.0005287018,0.5287018
2016-318T23:09:59.000,0.0005302341,0.5302341
2016-318T23:10:00.000,0.000513002,0.513002
2016-318T23:10:01.000,0.0004867508,0.4867508
2016-318T23:10:02.000,0.0004796086,0.4796086
2016-318T23:10:03.000,0.0004818416,0.4818416
2016-318T23:10:04.000,0.0004843255,0.4843255
2016-318T23:10:05.000,0.0004870561,0.4870561
2016-318T23:10:06.000,0.0004821568,0.4821568
2016-318T23:10:07.000,0.0004748607,0.4748607
2016-318T23:10:08.000,0.0004621541,0.4621541
2016-318T23:10:09.000,0.000446586,0.446586
2016-318T23:10:10.000,0.0004518578,0.4518578
2016-318T23:10:11.000,0.0004676184,0.4676184
2016-318T23:10:12.000,0.0004579143,0.4579143
2016-318T23:10:13.000,0.0004364644,0.4364644
2016-318T23:10:14.000,0.0004304908,0.4304908
2016-318T23:10:15.000,0.0004319653,0.4319653
2016-318T23:10:16.000,0.0004302579,0.4302579
2016-318T23:10:17.000,0.0004269466,0.4269466
2016-318T23:10:18.000,0.0004283759,0.4283759
2016-318T23:10:19.000,0.0004346195,0.4346195
2016-318T23:10:20.000,0.0004343365,0.4343365
2016-318T23:10:21.000,0.0004300077,0.4300077
2016-318T23:10:22.000,0.0004188124,0.4188124
2016-318T23:10:23.000,0.0004055182,0.4055182
2016-318T23:10:24.000,0.0003990109,0.3990109
2016-318T23:10:25.000,0.0003952927,0.3952927
2016-318T23:10:26.000,0.0003746204,0.3746204
2016-318T23:10:27.000,0.0003460273,0.3460273
2016-318T23:10:28.000,0.0003038702,0.3038702
2016-318T23:10:29.000,0.0002571198,0.2571198
2016-318T23:10:30.000,0.0002119595,0.2119595
2016-318T23:10:31.000,0.0001674127,0.1674127
2016-318T23:10:32.000,0.0001332136,0.1332136
2016-318T23:10:33.000,0.000103446,0.103446
2016-318T23:10:34.000,0.0000631482,0.0631482
2016-318T23:10:35.000,0.0000523034,0.0523034
2016-318T23:10:36.000,0.0000842413,0.0842413
2016-318T23:10:37.000,0.0001211722,0.1211722
2016-318T23:10:38.000,0.0001403126,0.1403126
2016-318T23:10:39.000,0.0001510399,0.1510399
2016-318T23:10:40.000,0.0001847867,0.1847867
2016-318T23:10:41.000,0.0002319203,0.2319203
2016-318T23:10:42.000,0.0002657549,0.2657549
2016-318T23:10:43.000,0.000292575,0.292575
2016-318T23:10:44.000,0.0003487366,0.3487366
2016-318T23:10:45.000,0.000419139,0.419139
2016-318T23:10:46.000,0.0004472399,0.4472399
2016-318T23:10:47.000,0.0004550557,0.4550557
2016-318T23:10:48.000,0.0004516533,0.4516533
2016-318T23:10:49.000,0.0004430001,0.4430001
2016-318T23:10:50.000,0.0004579807,0.4579807
2016-318T23:10:51.000,0.0004842066,0.4842066
2016-318T23:10:52.000,0.0004964336,0.4964336
2016-318T23:10:53.000,0.0005051204,0.5051204
2016-318T23:10:54.000,0.0005258029,0.5258029
2016-318T23:10:55.000,0.000551094,0.551094
2016-318T23:10:56.000,0.0005547029,0.5547029
2016-318T23:10:57.000,0.0005480415,0.5480415
2016-318T23:10:58.000,0.0005534851,0.5534851
2016-318T23:10:59.000,0.0005647621,0.5647621
2016-318T23:11:00.000,0.0005802273,0.5802273
2016-318T23:11:01.000,0.0005990051,0.5990051
2016-318T23:11:02.000,0.0006058161,0.6058161
2016-318T23:11:03.000,0.0006063668,0.6063668
2016-318T23:11:04.000,0.0006212472,0.6212472
2016-318T23:11:05.000,0.000643273,0.643273
2016-318T23:11:06.000,0.0006368668,0.6368668
2016-318T23:11:07.000,0.0006179197,0.6179197
2016-318T23:11:08.000,0.0006027311,0.6027311
2016-318T23:11:09.000,0.0005888199,0.5888199
2016-318T23:11:10.000,0.0005849428,0.5849428
2016-318T23:11:11.000,0.0005898202,0.5898202
2016-318T23:11:12.000,0.0005716387,0.5716387
2016-318T23:11:13.000,0.0005419592,0.5419592
2016-318T23:11:14.000,0.0005178257,0.5178257
2016-318T23:11:15.000,0.0004963227,0.4963227
2016-318T23:11:16.000,0.0004548139,0.4548139
2016-318T23:11:17.000,0.0004037416,0.4037416
2016-318T23:11:18.000,0.000363854,0.363854
2016-318T23:11:19.000,0.0003298484,0.3298484
2016-318T23:11:20.000,0.0002935317,0.2935317
2016-318T23:11:21.000,0.0002561379,0.2561379
2016-318T23:11:22.000,0.0002192335,0.2192335
2016-318T23:11:23.000,0.0001824059,0.1824059
2016-318T23:11:24.000,0.000154752,0.154752
2016-318T23:11:25.000,0.0001383858,0.1383858
2016-318T23:11:26.000,0.0001157216,0.1157216
2016-318T23:11:27.000,0.000104092,0.104092
2016-318T23:11:28.000,0.0001005555,0.1005555
2016-318T23:11:29.000,0.0001040951,0.1040951
2016-318T23:11:30.000,0.0001354283,0.1354283
2016-318T23:11:31.000,0.0001774657,0.1774657
2016-318T23:11:32.000,0.0002082447,0.2082447
2016-318T23:11:33.000,0.0002349373,0.2349373
2016-318T23:11:34.000,0.000274082,0.274082
2016-318T23:11:35.000,0.0003188218,0.3188218
2016-318T23:11:36.000,0.0003533769,0.3533769
2016-318T23:11:37.000,0.0003830914,0.3830914
2016-318T23:11:38.000,0.0004131675,0.4131675
2016-318T23:11:39.000,0.0004439582,0.4439582
2016-318T23:11:40.000,0.0004786516,0.4786516
2016-318T23:11:41.000,0.0005171732,0.5171732
2016-318T23:11:42.000,0.0005287731,0.5287731
2016-318T23:11:43.000,0.0005282024,0.5282024
2016-318T23:11:44.000,0.0005360532,0.5360532
2016-318T23:11:45.000,0.0005476659,0.5476659
2016-318T23:11:46.000,0.0005243553,0.5243553
2016-318T23:11:47.000,0.0004849039,0.4849039
2016-318T23:11:48.000,0.0004574184,0.4574184
2016-318T23:11:49.000,0.0004354111,0.4354111
2016-318T23:11:50.000,0.0004190431,0.4190431
2016-318T23:11:51.000,0.0004064274,0.4064274
2016-318T23:11:52.000,0.0003713916,0.3713916
2016-318T23:11:53.000,0.0003259694,0.3259694
2016-318T23:11:54.000,0.000313666,0.313666
2016-318T23:11:55.000,0.0003168701,0.3168701
2016-318T23:11:56.000,0.0002960268,0.2960268
2016-318T23:11:57.000,0.0002642692,0.2642692
2016-318T23:11:58.000,0.0002511419,0.2511419
2016-318T23:11:59.000,0.0002489461,0.2489461
2016-318T23:12:00.000,0.0002262841,0.2262841
2016-318T23:12:01.000,0.000198287,0.198287
2016-318T23:12:02.000,0.0001974016,0.1974016
2016-318T23:12:03.000,0.0002091456,0.2091456
2016-318T23:12:04.000,0.0001990554,0.1990554
2016-318T23:12:05.000,0.0001780417,0.1780417
2016-318T23:12:06.000,0.000184061,0.184061
2016-318T23:12:07.000,0.0002073991,0.2073991
2016-318T23:12:08.000,0.0002202483,0.2202483
2016-318T23:12:09.000,0.0002306943,0.2306943
2016-318T23:12:10.000,0.0002445899,0.2445899
2016-318T23:12:11.000,0.0002593735,0.2593735
2016-318T23:12:12.000,0.000276528,0.276528
2016-318T23:12:13.000,0.0002968118,0.2968118
2016-318T23:12:14.000,0.0003114522,0.3114522
2016-318T23:12:15.000,0.000323294,0.323294
2016-318T23:12:16.000,0.0003505165,0.3505165
2016-318T23:12:17.000,0.0003848208,0.3848208
2016-318T23:12:18.000,0.0004041023,0.4041023
2016-318T23:12:19.000,0.0004166292,0.4166292
2016-318T23:12:20.000,0.0004298534,0.4298534
2016-318T23:12:21.000,0.0004436088,0.4436088
2016-318T23:12:22.000,0.0004450761,0.4450761
2016-318T23:12:23.000,0.0004413331,0.4413331
2016-318T23:12:24.000,0.0004233493,0.4233493
2016-318T23:12:25.000,0.0003985979,0.3985979
2016-318T23:12:26.000,0.0003747183,0.3747183
2016-318T23:12:27.000,0.0003515698,0.3515698
2016-318T23:12:28.000,0.0003527764,0.3527764
2016-318T23:12:29.000,0.0003676705,0.3676705
2016-318T23:12:30.000,0.0003613916,0.3613916
2016-318T23:12:31.000,0.0003471709,0.3471709
2016-318T23:12:32.000,0.0003467163,0.3467163
2016-318T23:12:33.000,0.0003516629,0.3516629
2016-318T23:12:34.000,0.0003529013,0.3529013
2016-318T23:12:35.000,0.000353362,0.353362
2016-318T23:12:36.000,0.0003579821,0.3579821
2016-318T23:12:37.000,0.0003695943,0.3695943
2016-318T23:12:38.000,0.0003930472,0.3930472
2016-318T23:12:39.000,0.0004210855,0.4210855
2016-318T23:12:40.000,0.0004431366,0.4431366
2016-318T23:12:41.000,0.0004621763,0.4621763
2016-318T23:12:42.000,0.0004523418,0.4523418
2016-318T23:12:43.000,0.0004314097,0.4314097
2016-318T23:12:44.000,0.0004291546,0.4291546
2016-318T23:12:45.000,0.0004348532,0.4348532
2016-318T23:12:46.000,0.0004268441,0.4268441
2016-318T23:12:47.000,0.0004127149,0.4127149
2016-318T23:12:48.000,0.0004045568,0.4045568
2016-318T23:12:49.000,0.0004009761,0.4009761
2016-318T23:12:50.000,0.0003752291,0.3752291
2016-318T23:12:51.000,0.0003394788,0.3394788
2016-318T23:12:52.000,0.0003305191,0.3305191
2016-318T23:12:53.000,0.0003360731,0.3360731
2016-318T23:12:54.000,0.0003351876,0.3351876
2016-318T23:12:55.000,0.0003315782,0.3315782
2016-318T23:12:56.000,0.0003275753,0.3275753
2016-318T23:12:57.000,0.0003230927,0.3230927
2016-318T23:12:58.000,0.0003328133,0.3328133
2016-318T23:12:59.000,0.0003535755,0.3535755
2016-318T23:13:00.000,0.0003597813,0.3597813
2016-318T23:13:01.000,0.0003578108,0.3578108
2016-318T23:13:02.000,0.0003452042,0.3452042
2016-318T23:13:03.000,0.0003276075,0.3276075
2016-318T23:13:04.000,0.0003069251,0.3069251
2016-318T23:13:05.000,0.0002868646,0.2868646
2016-318T23:13:06.000,0.0002530873,0.2530873
2016-318T23:13:07.000,0.0002119165,0.2119165
2016-318T23:13:08.000,0.0001871589,0.1871589
2016-318T23:13:09.000,0.000175086,0.175086
2016-318T23:13:10.000,0.0001563779,0.1563779
2016-318T23:13:11.000,0.0001327086,0.1327086
2016-318T23:13:12.000,0.0001162883,0.1162883
2016-318T23:13:13.000,0.0001049595,0.1049595
2016-318T23:13:14.000,0.0000885292,0.0885292
2016-318T23:13:15.000,0.0000888804,0.0888804
2016-318T23:13:16.000,0.0001015985,0.1015985
2016-318T23:13:17.000,0.0001141547,0.1141547
2016-318T23:13:18.000,0.0001419315,0.1419315
2016-318T23:13:19.000,0.0001817388,0.1817388
2016-318T23:13:20.000,0.0001905633,0.1905633
2016-318T23:13:21.000,0.0001841273,0.1841273
2016-318T23:13:22.000,0.0002126399,0.2126399
2016-318T23:13:23.000,0.0002581606,0.2581606
2016-318T23:13:24.000,0.0002946629,0.2946629
2016-318T23:13:25.000,0.0003269656,0.3269656
2016-318T23:13:26.000,0.0003517722,0.3517722
2016-318T23:13:27.000,0.0003731195,0.3731195
2016-318T23:13:28.000,0.0003936963,0.3936963
2016-318T23:13:29.000,0.0004142569,0.4142569
2016-318T23:13:30.000,0.0004505276,0.4505276
2016-318T23:13:31.000,0.000494103,0.494103
2016-318T23:13:32.000,0.0005241181,0.5241181
2016-318T23:13:33.000,0.0005487385,0.5487385
2016-318T23:13:34.000,0.0005592286,0.5592286
2016-318T23:13:35.000,0.0005633781,0.5633781
2016-318T23:13:36.000,0.0005698279,0.5698279
2016-318T23:13:37.000,0.0005771946,0.5771946